Time,TemperatureF,DewpointF,PressureIn,WindDirection,WindDirectionDegrees,WindSpeedMPH,WindSpeedGustMPH,Humidity,HourlyPrecipIn,Conditions,Clouds,dailyrainin,SoftwareType,DateUTC
2013-10-24 08:52:00,37.0,29.0,29.89,NW,313,9.0,16.0,72,0.00,,,0.00,,2013-10-24 13:52:00,
2013-10-24 09:22:00,38.0,29.0,29.90,NW,311,10.0,20.0,70,0.00,,,0.00,,2013-10-24 14:22:00,
2013-10-24 09:42:00,38.0,29.0,29.90,NW,311,10.0,20.0,69,0.00,,,0.00,,2013-10-24 14:42:00,
2013-10-24 09:51:00,38.0,29.0,29.91,NW,315,9.0,19.0,69,0.00,,,0.00,,2013-10-24 14:51:00,
2013-10-24 10:01:00,38.0,29.0,29.91,NW,315,9.0,19.0,69,0.00,,,0.00,,2013-10-24 15:01:00,
2013-10-24 10:21:00,39.0,29.0,29.91,NW,310,9.0,20.0,68,0.00,,,0.00,,2013-10-24 15:21:00,
2013-10-24 10:43:00,38.0,29.0,29.91,NW,306,9.0,17.0,69,0.00,,,0.00,,2013-10-24 15:43:00,
2013-10-24 10:53:00,39.0,29.0,29.92,NW,313,8.0,16.0,68,0.00,,,0.00,,2013-10-24 15:53:00,
2013-10-24 11:13:00,39.0,28.0,29.92,WNW,297,7.0,14.0,65,0.00,,,0.00,,2013-10-24 16:13:00,
2013-10-24 11:23:00,40.0,29.0,29.93,NW,307,7.0,16.0,65,0.00,,,0.00,,2013-10-24 16:23:00,
2013-10-24 11:42:00,40.0,28.0,29.93,NW,307,8.0,17.0,63,0.00,,,0.00,,2013-10-24 16:42:00,
2013-10-24 11:53:00,41.0,30.0,29.93,NW,313,9.0,13.0,64,0.00,,,0.00,,2013-10-24 16:53:00,
2013-10-24 12:12:00,41.0,29.0,29.93,WNW,295,7.0,14.0,61,0.00,,,0.00,,2013-10-24 17:12:00,
2013-10-24 12:22:00,41.0,29.0,29.93,NW,304,8.0,16.0,62,0.00,,,0.00,,2013-10-24 17:22:00,
2013-10-24 12:34:00,41.0,29.0,29.93,NW,304,8.0,16.0,62,0.00,,,0.00,,2013-10-24 17:34:00,
2013-10-24 12:43:00,41.0,29.0,29.93,NW,304,8.0,16.0,62,0.00,,,0.00,,2013-10-24 17:43:00,
2013-10-24 12:52:00,43.0,28.0,29.93,WNW,302,8.0,13.0,56,0.00,,,0.00,,2013-10-24 17:52:00,
2013-10-24 13:12:00,42.0,28.0,29.93,NW,307,9.0,18.0,57,0.00,,,0.00,,2013-10-24 18:12:00,
2013-10-24 13:23:00,43.0,28.0,29.93,NW,313,8.0,15.0,56,0.00,,,0.00,,2013-10-24 18:23:00,
2013-10-24 13:42:00,42.0,27.0,29.93,WNW,299,7.0,16.0,55,0.00,,,0.00,,2013-10-24 18:42:00,
2013-10-24 13:53:00,42.0,28.0,29.93,NW,312,6.0,14.0,58,0.00,,,0.00,,2013-10-24 18:53:00,
2013-10-24 14:02:00,42.0,28.0,29.93,NW,312,6.0,14.0,58,0.00,,,0.00,,2013-10-24 19:02:00,
2013-10-24 14:11:00,42.0,28.0,29.93,NW,312,6.0,14.0,58,0.00,,,0.00,,2013-10-24 19:11:00,
2013-10-24 14:22:00,42.0,28.0,29.93,NW,312,6.0,14.0,58,0.00,,,0.00,,2013-10-24 19:22:00,
2013-10-24 15:11:00,45.0,27.0,29.93,WNW,303,9.0,18.0,50,0.00,,,0.00,,2013-10-24 20:11:00,
2013-10-24 15:23:00,45.0,27.0,29.93,WNW,303,9.0,18.0,50,0.00,,,0.00,,2013-10-24 20:23:00,
2013-10-24 15:32:00,45.0,27.0,29.93,WNW,303,9.0,18.0,50,0.00,,,0.00,,2013-10-24 20:32:00,
2013-10-24 15:42:00,45.0,27.0,29.93,WNW,303,9.0,18.0,50,0.00,,,0.00,,2013-10-24 20:42:00,
2013-10-24 15:53:00,43.0,29.0,29.95,NW,307,9.0,17.0,58,0.00,,,0.00,,2013-10-24 20:53:00,
2013-10-24 16:02:00,43.0,29.0,29.95,NW,307,9.0,17.0,58,0.00,,,0.00,,2013-10-24 21:02:00,
2013-10-24 16:12:00,43.0,29.0,29.95,NW,307,9.0,17.0,58,0.00,,,0.00,,2013-10-24 21:12:00,
2013-10-24 16:22:00,43.0,29.0,29.95,NW,307,9.0,17.0,58,0.00,,,0.00,,2013-10-24 21:22:00,
2013-10-24 16:54:00,43.0,31.0,29.96,WNW,292,7.0,14.0,62,0.00,,,0.00,,2013-10-24 21:54:00,
2013-10-24 17:14:00,42.0,31.0,29.96,WNW,286,5.0,10.0,64,0.00,,,0.00,,2013-10-24 22:14:00,
2013-10-24 17:24:00,41.0,32.0,29.97,WNW,299,11.0,25.0,70,0.00,,,0.00,,2013-10-24 22:24:00,
2013-10-24 17:43:00,40.0,31.0,29.98,WNW,300,7.0,15.0,69,0.00,,,0.00,,2013-10-24 22:43:00,
2013-10-24 17:54:00,40.0,32.0,29.98,WNW,295,5.0,13.0,72,0.00,,,0.00,,2013-10-24 22:54:00,
2013-10-24 18:13:00,40.0,31.0,29.99,NW,306,8.0,19.0,69,0.00,,,0.00,,2013-10-24 23:13:00,
2013-10-24 18:22:00,40.0,31.0,29.99,NW,306,8.0,19.0,69,0.00,,,0.00,,2013-10-24 23:22:00,
2013-10-24 18:43:00,40.0,31.0,29.99,NW,308,9.0,18.0,69,0.00,,,0.00,,2013-10-24 23:43:00,
2013-10-24 18:53:00,40.0,31.0,30.01,NW,312,9.0,20.0,70,0.00,,,0.00,,2013-10-24 23:53:00,
2013-10-24 19:02:00,40.0,31.0,30.01,NW,312,9.0,20.0,70,0.00,,,0.00,,2013-10-25 00:02:00,
2013-10-24 19:12:00,40.0,31.0,30.01,NW,312,9.0,20.0,70,0.00,,,0.00,,2013-10-25 00:12:00,
2013-10-24 19:22:00,40.0,31.0,30.01,NW,314,8.0,16.0,70,0.00,,,0.00,,2013-10-25 00:22:00,
2013-10-24 19:42:00,40.0,31.0,30.02,NW,317,7.0,16.0,71,0.00,,,0.00,,2013-10-25 00:42:00,
2013-10-24 19:52:00,40.0,30.0,30.02,NW,311,10.0,20.0,68,0.00,,,0.00,,2013-10-25 00:52:00,
2013-10-24 20:11:00,40.0,30.0,30.03,NW,322,10.0,19.0,67,0.00,,,0.00,,2013-10-25 01:11:00,
2013-10-24 20:21:00,40.0,31.0,30.03,NW,315,8.0,18.0,70,0.00,,,0.00,,2013-10-25 01:21:00,
2013-10-24 20:32:00,40.0,31.0,30.03,NW,315,8.0,18.0,70,0.00,,,0.00,,2013-10-25 01:32:00,
2013-10-24 20:43:00,40.0,31.0,30.03,NW,315,8.0,18.0,70,0.00,,,0.00,,2013-10-25 01:43:00,
2013-10-24 20:53:00,39.0,30.0,30.03,NW,316,9.0,16.0,71,0.00,,,0.00,,2013-10-25 01:53:00,
2013-10-24 21:12:00,39.0,30.0,30.03,NW,315,10.0,17.0,71,0.00,,,0.00,,2013-10-25 02:12:00,
2013-10-24 21:22:00,39.0,30.0,30.03,NW,315,10.0,17.0,71,0.00,,,0.00,,2013-10-25 02:22:00,
2013-10-24 21:32:00,39.0,30.0,30.03,NW,315,10.0,17.0,71,0.00,,,0.00,,2013-10-25 02:32:00,